Simultaneous Nadir Overpasses (SNOs) Predictions

Prediction of SNOs between NOAA-19 and NPP Satellite Orbit:

Table of predicted SNOs for the next 14.0 days since TLE Epoch: 10/4/2019
Index Date (NOAA-19) Time (NOAA-19) Lat,Lon (NOAA-19) SZA (NOAA-19 ) Date (NPP) Time (NPP) Lat,Lon (NPP) SZA (NPP ) Distance(km) Time Diff (sec)
1 10/10/2019 18:19:13 79.86,-132.03 88.27 10/10/2019 18:20:27 79.84,-131.97 88.21 3.23 74
2 10/10/2019 19:10:17 -79.86, 35.21 91.72 10/10/2019 19:11:12 -79.85, 35.26 91.77 2.23 55
3 10/10/2019 20:01:14 79.86,-157.61 88.30 10/10/2019 20:01:58 79.87,-157.67 88.30 1.91 44
4 10/10/2019 20:52:18 -79.86, 9.63 91.70 10/10/2019 20:52:43 -79.88, 9.56 91.68 2.83 25
5 10/10/2019 21:43:15 79.85, 176.81 88.33 10/10/2019 21:43:28 79.87, 176.92 88.33 3.47 13
6 10/10/2019 22:34:18 -79.88, -15.64 91.68 10/10/2019 22:34:12 -79.85, -15.56 91.70 3.07 6
7 10/10/2019 23:25:15 79.87, 151.53 88.35 10/10/2019 23:24:58 79.88, 151.51 88.36 1.06 17
8 10/11/2019 00:16:19 -79.87, -41.22 91.65 10/11/2019 00:15:43 -79.89, -41.26 91.62 2.00 36
9 10/11/2019 01:07:15 79.89, 126.26 88.36 10/11/2019 01:06:28 79.88, 126.10 88.39 3.08 47
10 10/11/2019 01:58:19 -79.89, -66.49 91.63 10/11/2019 01:57:13 -79.89, -66.67 91.58 3.46 66




NCC Satellite Simultaneous Nadir Overpasses (SNOs) Prediction Service
